Regional Weather Roundup
Issued by NWS

Home | Current Version | Previous Version | Graphics & Text | Print | Product List | Glossary On
Versions: 1 2 3 4 5 6 7 8 9 10 11 12 13 14 15 16 17 18 19 20 21 22 23 24 25 26 27 28 29 30 31 32 33 34 35 36 37 38 39 40 41 42 43 44 45 46 47 48 49 50
998
ASUS43 KMKX 281121
RWRWI

WISCONSIN REGIONAL WEATHER ROUNDUP
NATIONAL WEATHER SERVICE MILWAUKEE/SULLIVAN WI
600 AM CDT THU JUL 28 2016

NOTE: "FAIR" INDICATES FEW OR NO CLOUDS BELOW 12,000 FEET WITH NO
SIGNIFICANT WEATHER AND/OR OBSTRUCTIONS TO VISIBILITY.

WIZ001-002-006>008-014>016-023>028-281200-
NORTHWEST WISCONSIN

CITY           SKY/WX    TMP DP  RH WIND       PRES   REMARKS
SUPERIOR ARPT  CLOUDY    60  57  91 NE6       30.05S
ASHLAND        PTCLDY    61  59  93 NE7       30.05S
HAYWARD        MOCLDY    61  59  93 NE8       30.03S
SIREN          CLOUDY    61  59  94 N7        30.03R
CUMBERLAND     CLOUDY    63  61  94 N7        30.01R
RICE LAKE      CLOUDY    65  62  92 N9        30.01R
CHETEK         CLOUDY    65  64  94 N7        29.99S
LADYSMITH      CLOUDY    65  63  96 NE9       30.02R
EAU CLAIRE     CLOUDY    65  64  97 N6        29.96R
MENOMONIE      CLOUDY    65  65  99 CALM      29.98R
NEW RICHMOND   CLOUDY    64  63  97 NE10      29.99S
OSCEOLA        CLOUDY    64  64 100 N6        30.03R
$$

WIZ003>005-009-010-017-018-281200-
NORTH CENTRAL WISCONSIN

CITY           SKY/WX    TMP DP  RH WIND       PRES   REMARKS
MANITOWISH WTR CLOUDY    59  59 100 NE5       30.05S
ARBOR VITAE    CLOUDY    59  57  92 NE3       30.04S
WOODRUFF       CLOUDY    59  57  92 NE3       30.04S
RHINELANDER    CLOUDY    59  58  96 NE7       30.04S
EAGLE RIVER    CLOUDY    58  58 100 NE3       30.04S
LAND O LAKES   CLOUDY    59  58  95 NE6       30.06S
PHILLIPS       CLOUDY    62  61  99 NE12      30.02R
TOMAHAWK       CLOUDY    59  57  94 NE3       30.04R
MEDFORD        DRIZZLE   62  62 100 E6        30.00R
MERRILL        HVY RAIN  59  59 100 NE6       30.01S
$$

WIZ029-030-035-036-043>047-281200-
CENTRAL WISCONSIN

CITY           SKY/WX    TMP DP  RH WIND       PRES   REMARKS
WAUSAU         LGT RAIN  60  58  92 NE6       29.98S
MOSINEE        DRIZZLE   61  61 100 NE12G17   29.99S
MARSHFIELD     LGT RAIN  66  63  90 NE9       29.96R
STEVENS POINT  CLOUDY    62  61  98 E12G18    29.98R
WAUPACA        CLOUDY    67  67  99 NE6       29.97R
WAUTOMA        CLOUDY    67  66  97 NE7       29.96R
WISC RAPIDS    CLOUDY    66  63  90 E7        29.96R
CAMP DOUGLAS   LGT RAIN  68  66  94 S3        29.93R
$$

WIZ011>013-019>022-031-037>040-048>050-281200-
NORTHEAST WISCONSIN

CITY           SKY/WX    TMP DP  RH WIND       PRES   REMARKS
ANTIGO         DRIZZLE   58  58 100 CALM      30.03R
SHAWANO        CLOUDY    63  61  92 NE10G17   29.99S
OCONTO         CLOUDY   N/A N/A N/A NE7       29.99S
STURGEON BAY   LGT RAIN  61  60  97 NE8       30.01R
GREEN BAY      CLOUDY    64  64 100 NE10      29.98R
MANITOWOC      CLOUDY    66  59  78 N9        29.98R
APPLETON       NOT AVBL
CLINTONVILLE   CLOUDY    61  59  94 NE8       29.99R
OSHKOSH        CLOUDY    67  62  84 E12       29.95R
$$

WIZ032>034-041-042-053>061-281200-
SOUTHWEST WISCONSIN

CITY           SKY/WX    TMP DP  RH WIND       PRES   REMARKS
LA CROSSE      CLOUDY    68  66  93 N8        29.91R
SPARTA         DRIZZLE   66  66  99 NE5       29.93R
VIROQUA        CLOUDY    67  67 100 N3        29.93R VSB 1/2
BOSCOBEL       FOG       68  67  96 CALM      29.91R VSB 1/4
PRAIRIE DU CHI CLOUDY    67  66  96 CALM      29.89S FOG
PLATTEVILLE    CLEAR     66  66  99 NE3       29.91R
$$

WIZ056-057-062-063-064-067-068-281200-
SOUTH CENTRAL WISCONSIN

CITY           SKY/WX    TMP DP  RH WIND       PRES   REMARKS
REEDSBURG      CLOUDY   N/A N/A N/A E3        29.92S
BARABOO/DELLS  PTCLDY    66  64  94 E5        29.93R
LONE ROCK      FOG       66  65  96 CALM      29.91S VSB 1/4
MINERAL POINT  CLEAR     66  64  94 CALM      29.91F FOG
MADISON        MOCLDY    69  66  90 E7        29.92R FOG
MIDDLETON      MOCLDY    68  68 100 E3        29.93R
WATERTOWN      MOCLDY    66  66 100 E8        29.93R
MONROE         CLEAR     68  64  88 CALM      29.90S FOG
JANESVILLE     MOCLDY    70  68  94 NE5       29.90S FOG
$$

WIZ051-052-058>065-066-070>072-281200-
SOUTHEAST WISCONSIN

CITY           SKY/WX    TMP DP  RH WIND       PRES   REMARKS
MILWAUKEE      MOCLDY    69  66  90 NE8       29.92F
WAUKESHA       MOCLDY    64  64 100 E9        29.95S
MILWAUKEE/TIMM PTCLDY    66  63  88 NE3       29.94S
RACINE         PTCLDY    67  65  93 N7        29.93F
BURLINGTON     CLEAR     67  66  94 NE5       29.92F
KENOSHA        MOCLDY    69  67  93 NE7       29.92R FOG
FOND DU LAC    CLOUDY    67  63  87 E9G17     29.95S
SHEBOYGAN      CLOUDY    66  62  87 NE13      29.95R
WEST BEND      CLOUDY    64  64 100 NE5       29.95S FOG
JUNEAU         CLOUDY    66  64  95 E8        29.94F
$$

LSZ147-162-281200-
LAKE SUPERIOR

STATION/POSITION TIME  TEMP    WIND        PRES    WAVE
                       AIR SEA DIR/SP/G            HT/PER
                 (UTC) (F)     (DEG/KT/KT) (MB)    (FT/S)
W MID LAKE BUOY  1050   62 59   30/ 10/ 12 1017.5R   0
DEVILS ISLAND    1100   62      20/  9/ 11 1018.1R
PORT WING        0946   60      70/  3/  3 1017.6
SAXON HARBOR     1000   65      80/  5/  8 1017.3
$$

LMZ867-665-643>646-281200-
LAKE MICHIGAN

STATION/POSITION TIME  TEMP    WIND        PRES    WAVE
                       AIR SEA DIR/SP/G            HT/PER
                 (UTC) (F)     (DEG/KT/KT) (MB)    (FT/S)
CHAMBERS ISLAND  1000   65      20/ 16/ 18 1015.2S
N MID LAKE BUOY  1050   65 69   30/ 16/ 17 1014.8R   2/ 4
NORTHPORT PIER   1000   63      20/  8/ 12 1015.6S
SISTER BAY       1036   60      20/  3/  8   N/A
ALGOMA LAKESHORE 1013           40/ 14/ 19   N/A
KEWAUNEE LAKESHO 1000   62      30/  3/  6 1014.1S
SHEBOYGAN LAKESH 1100   62     350/ 13/ 14 1014.5R
PORT WASHINGTON  1000   69     350/  4/  6 1014.6
ATWATER BUOY     1100   65 64  360/  8/ 10 1014.9S
MILWAUKEE LAKESH 1010   67      30/ 16/ 17   N/A
S MID LAKE BUOY  1050   73 75   30/ 10/ 12 1012.0S   0
KENOSHA   LAKESH 1100   67      10/ 14/ 15 1012.9R
$$

TC  - TEMPERATURE IN CELSIUS
VSB - VISIBILITY IN STATUTE MILES
WCI - WIND CHILL INDEX
HX  - HEAT INDEX





USA.gov is the U.S. government's official web portal to all federal, state and local government web resources and services.